Stations météo

Publicité
Quimper, France (7201): Température de l'air & dewpoint: 30.06.2020 03:00:00 - 06.07.2020 03:00:00 (CEST)Quimper, France (7201): Température de l'air 5cm: 30.06.2020 03:00:00 - 06.07.2020 03:00:00 (CEST)Quimper, France (7201): Température de l'air -20cm: 30.06.2020 03:00:00 - 06.07.2020 03:00:00 (CEST)Quimper, France (7201): Vitesse du vent & gusts: 30.06.2020 03:00:00 - 06.07.2020 03:00:00 (CEST)Quimper, France (7201): Direction du vent: 30.06.2020 03:00:00 - 06.07.2020 03:00:00 (CEST)Quimper, France (7201): reduced air pressure: 30.06.2020 03:00:00 - 06.07.2020 03:00:00 (CEST)Quimper, France (7201): visibility: 30.06.2020 03:00:00 - 06.07.2020 03:00:00 (CEST)Quimper, France (7201): Ensoleillement: 30.06.2020 03:00:00 - 06.07.2020 03:00:00 (CEST)Quimper, France (7201): Quantités de précipitations: 30.06.2020 03:00:00 - 06.07.2020 03:00:00 (CEST)
Date & Time tt [°C] td [°C] tt 5cm [°C] tt -20cm [°C] ff [km/h] ff [knt] fx [km/h] fx [knt] dd ppp [hPa] vv [km] sd [min] rr [mm]
06.07.2020 03:00:00 12,1 9,5 10,3 17,7 10 6 18 10 WNW 1023,9 30 0 0,0
06.07.2020 02:00:00 12,2 9,6 10,1 17,7 11 6 23 12 WNW 1024,0 20 0 0,0
06.07.2020 01:00:00 12,0 9,6 10,6 17,7 9 5 24 13 WNW 1023,8 20 0 0,0
06.07.2020 00:00:00 11,9 9,6 10,8 17,7 10 6 23 12 WNW 1023,5 35 0 0,0
05.07.2020 23:00:00 13,3 9,9 12,3 17,7 16 9 29 16 NW 1023,5 34 0 0,0
05.07.2020 22:00:00 14,1 10,5 13,5 17,7 16 9 32 17 WNW 1022,8 34 19 0,0
05.07.2020 21:00:00 15,5 10,9 15,4 17,6 18 10 36 20 NW 1022,4 43 28 0,0
05.07.2020 20:00:00 16,9 9,8 18,2 17,5 27 14 41 22 WNW 1022,1 19 58 0,0
05.07.2020 19:00:00 17,4 10,3 18,5 17,4 28 15 50 27 NW 1021,8 26 57 0,0
05.07.2020 18:00:00 17,7 11,5 18,5 17,4 23 12 48 26 NW 1021,7 20 30 0,0
05.07.2020 17:00:00 17,7 13,8 18,9 17,3 22 12 37 20 WNW 1021,3 33 5 0,0
05.07.2020 16:00:00 17,9 14,4 16,1 17,2 26 14 40 21 WNW 1021,1 12 13 0,0
05.07.2020 15:00:00 17,3 15,8 17,2 17,2 26 14 36 19 WNW 1021,0 18 5 0,4
05.07.2020 14:00:00 18,5 16,5 18,1 17,2 24 13 38 21 W 1020,7 18 15 0,0
05.07.2020 13:00:00 17,2 16,4 17,2 17,2 21 12 37 20 W 1020,6 4,1 1 0,0
05.07.2020 12:00:00 17,0 16,5 17,1 17,2 24 13 39 21 W 1020,4 5 0 0,0
05.07.2020 11:00:00 16,8 16,5 16,5 17,2 22 12 40 22 W 1020,2 2,0 0 0,0
05.07.2020 10:00:00 16,5 16,2 16,1 17,2 21 11 36 19 W 1020,0 2,0 0 0,0
05.07.2020 09:00:00 16,1 15,9 15,5 17,2 19 10 33 18 WSW 1019,7 1,6 0 0,0
05.07.2020 08:00:00 15,6 15,4 15,2 17,2 19 10 34 18 WSW 1019,4 1,9 0 0,2
05.07.2020 07:00:00 15,4 15,2 15,2 17,2 18 10 34 18 W 1019,4 1,6 0 0,2
05.07.2020 06:00:00 15,7 15,5 15,3 17,3 15 8 34 18 W 1019,3 1,4 0 0,2
05.07.2020 05:00:00 15,5 15,3 15,2 17,3 19 10 38 20 WSW 1019,6 1,9 0 0,0
05.07.2020 04:00:00 15,6 15,4 15,4 17,3 20 11 35 19 W 1019,9 1,8 0 0,2
05.07.2020 03:00:00 15,8 15,6 15,5 17,3 14 8 35 19 WSW 1020,1 2,0 0 0,2
05.07.2020 02:00:00 15,8 15,6 15,5 17,3 14 8 34 19 WSW 1020,2 1,6 0 0,0
05.07.2020 01:00:00 15,8 15,6 15,6 17,3 21 12 35 19 W 1020,5 2,3 0 0,0
05.07.2020 00:00:00 15,9 15,6 15,7 17,3 21 11 36 20 W 1020,4 2,4 0 0,0
04.07.2020 23:00:00 16,0 15,7 15,7 17,2 22 12 37 20 W 1020,5 4,0 0 0,2
04.07.2020 22:00:00 16,3 16,1 16,2 17,2 19 11 41 22 W 1019,8 1,5 0 0,0
04.07.2020 21:00:00 16,4 16,1 16,3 17,2 20 11 35 19 W 1019,8 1,2 0 0,0
04.07.2020 20:00:00 16,6 16,3 16,4 17,2 20 11 37 20 WSW 1019,9 1,4 0 0,0
04.07.2020 19:00:00 16,7 16,2 16,6 17,1 20 11 41 22 W 1019,8 6 0 0,0
04.07.2020 18:00:00 17,0 16,4 16,9 17,1 23 12 44 24 W 1019,8 7 3 0,0
04.07.2020 17:00:00 17,7 17,1 17,6 17,1 30 16 50 27 WSW 1019,6 2,6 0 0,0
04.07.2020 16:00:00 17,7 17,4 17,7 17,1 29 15 48 26 W 1019,8 3,5 0 0,0
04.07.2020 15:00:00 17,5 17,3 17,4 17,0 30 16 48 26 WSW 1019,7 3,4 0 0,0
04.07.2020 14:00:00 17,4 17,2 17,3 17,1 29 16 49 27 WSW 1019,6 1,4 0 0,2
04.07.2020 13:00:00 17,3 17,1 17,3 17,0 28 15 47 26 WSW 1019,8 1,3 0 0,2
04.07.2020 12:00:00 17,3 17,0 17,2 17,0 29 15 49 26 WSW 1019,5 1,4 0 0,4
04.07.2020 11:00:00 17,2 16,9 16,9 17,0 27 15 49 26 WSW 1019,3 1,5 0 1,2
04.07.2020 10:00:00 16,8 16,6 16,5 17,1 26 14 44 24 WSW 1019,1 1,6 0 0,4
04.07.2020 09:00:00 16,6 16,4 16,3 17,1 26 14 48 26 WSW 1019,0 1,4 0 0,2
04.07.2020 08:00:00 16,5 16,3 16,1 17,1 27 14 49 26 WSW 1018,8 2,9 0 0,2
04.07.2020 07:00:00 16,4 16,1 15,9 17,1 24 13 42 23 WSW 1018,8 1,6 0 2,7
04.07.2020 06:00:00 16,1 15,8 15,6 17,2 25 14 42 23 WSW 1018,9 1,4 0 2,6
04.07.2020 05:00:00 15,9 15,6 15,4 17,2 22 12 43 23 SW 1019,3 2,2 0 0,8
04.07.2020 04:00:00 15,6 15,3 15,1 17,2 22 12 40 21 SW 1019,8 3,6 0 1,2
04.07.2020 03:00:00 15,4 14,9 14,9 17,2 24 13 38 20 SW 1020,5 1,7 0 1,0
04.07.2020 02:00:00 15,9 14,3 14,9 17,2 21 11 35 19 SW 1020,8 9 0 0,0
04.07.2020 01:00:00 16,0 13,8 15,8 17,3 19 11 35 19 SW 1021,1 37 0 0,0
04.07.2020 00:00:00 15,9 13,6 15,6 17,2 19 10 35 19 SW 1021,3 40 0 0,0
03.07.2020 23:00:00 15,8 12,9 15,5 17,2 19 10 35 19 SW 1021,6 45 0 0,0
03.07.2020 22:00:00 15,6 12,3 15,4 17,2 14 8 38 21 SW 1021,5 48 6 0,0
03.07.2020 21:00:00 16,0 12,0 16,0 17,1 23 13 43 23 WSW 1021,8 55 22 0,0
03.07.2020 20:00:00 16,0 11,4 16,1 17,1 25 13 41 22 WSW 1021,9 56 12 0,0
03.07.2020 19:00:00 17,8 10,7 17,9 17,0 26 14 45 24 WSW 1021,9 50 37 0,0
03.07.2020 18:00:00 17,3 10,9 18,0 16,9 26 14 40 22 WSW 1022,2 53 17 0,0
03.07.2020 17:00:00 17,8 12,3 19,0 16,8 29 15 44 24 WSW 1022,6 33 30 0,0
03.07.2020 16:00:00 17,8 11,8 19,9 16,7 26 14 43 23 SW 1022,6 36 36 0,0
03.07.2020 15:00:00 18,6 12,3 18,9 16,6 23 13 36 19 SW 1022,8 42 25 0,0
03.07.2020 14:00:00 18,1 11,4 20,5 16,6 23 13 39 21 W 1023,2 42 55 0,0
03.07.2020 13:00:00 18,1 11,2 18,7 16,6 22 12 34 19 W 1023,1 20 42 0,0
03.07.2020 12:00:00 16,7 13,0 16,8 16,7 18 10 34 18 WSW 1022,9 20 12 0,0
03.07.2020 11:00:00 17,9 13,2 16,6 16,8 18 10 27 15 WSW 1022,6 37 31 0,0
03.07.2020 10:00:00 15,7 11,7 15,5 16,9 16 9 26 14 WSW 1022,6 20 29 0,0
03.07.2020 09:00:00 15,6 13,8 14,5 17,0 10 6 18 10 WSW 1022,5 24 58 0,0
03.07.2020 08:00:00 13,2 12,9 10,1 17,1 4 2 7 4 W 1022,5 19 58 0,0
03.07.2020 07:00:00 10,8 10,6 8,8 17,2 5 3 13 7 WSW 1022,5 14 10 0,0
03.07.2020 06:00:00 10,0 9,8 7,9 17,3 9 5 11 6 WNW 1022,5 2,5 0 0,2
03.07.2020 05:00:00 9,8 9,5 7,8 17,3 7 4 10 5 W 1022,2 6 0 0,0
03.07.2020 04:00:00 10,3 10,0 8,5 17,4 7 4 10 5 W 1022,2 10 0 0,0
03.07.2020 03:00:00 11,3 10,8 8,9 17,5 6 4 8 4 WSW 1022,1 11 0 0,0
03.07.2020 02:00:00 11,5 10,9 9,0 17,5 5 3 10 5 W 1022,3 20 0 0,0
03.07.2020 01:00:00 11,4 10,8 9,7 17,5 6 3 11 6 W 1022,1 28 0 0,0
03.07.2020 00:00:00 11,5 10,7 10,4 17,6 8 4 13 7 WNW 1022,0 32 0 0,0
02.07.2020 23:00:00 12,2 10,9 11,2 17,5 9 5 18 10 WNW 1021,7 33 0 0,0
02.07.2020 22:00:00 14,4 11,4 14,0 17,5 13 7 24 13 WNW 1021,0 48 37 0,0
02.07.2020 21:00:00 15,4 11,4 15,2 17,5 15 8 29 16 NW 1020,6 45 39 0,0
02.07.2020 20:00:00 16,6 11,9 16,8 17,4 21 11 33 18 WNW 1019,9 38 20 0,0
02.07.2020 19:00:00 16,4 11,3 16,4 17,4 22 12 32 18 WNW 1019,6 40 0 0,0
02.07.2020 18:00:00 16,0 11,4 16,1 17,3 15 8 32 17 WNW 1019,2 42 0 0,0
02.07.2020 17:00:00 17,5 11,5 17,3 17,2 17 9 30 16 WNW 1018,9 37 3 0,0
02.07.2020 16:00:00 17,0 12,3 17,6 17,2 18 10 33 18 WNW 1018,6 44 0 0,0
02.07.2020 15:00:00 17,4 11,7 18,3 17,2 19 10 34 19 NW 1018,5 38 27 0,0
02.07.2020 14:00:00 17,9 12,1 18,9 17,1 22 12 39 21 W 1018,0 20 23 0,0
02.07.2020 13:00:00 17,9 13,8 15,0 17,1 22 12 38 20 W 1017,5 37 11 0,4
02.07.2020 12:00:00 17,0 13,1 16,9 17,1 19 11 30 16 W 1017,1 19 15 0,0
02.07.2020 11:00:00 15,4 12,9 16,0 17,2 15 8 34 19 WNW 1016,9 37 14 0,0
02.07.2020 10:00:00 16,2 13,7 14,4 17,2 19 10 34 18 W 1016,2 19 25 0,0
02.07.2020 09:00:00 14,5 13,4 13,7 17,3 16 8 31 17 W 1015,9 19 18 0,2
02.07.2020 08:00:00 13,9 13,1 11,9 17,4 12 6 18 10 W 1015,6 30 0 0,0
02.07.2020 07:00:00 12,1 11,8 10,0 17,5 6 4 11 6 W 1015,3 17 0 0,0
02.07.2020 06:00:00 11,5 11,0 9,3 17,6 8 4 10 5 W 1015,1 15 0 0,0
02.07.2020 05:00:00 11,1 10,6 9,5 17,7 7 4 10 5 W 1015,1 13 0 0,2
02.07.2020 04:00:00 11,9 11,3 10,1 17,7 8 4 16 9 W 1014,9 18 0 0,0
02.07.2020 03:00:00 11,4 10,8 10,1 17,7 9 5 14 8 W 1014,8 17 0 0,0
02.07.2020 02:00:00 12,2 11,4 11,0 17,8 8 5 14 8 W 1014,8 28 0 0,0
02.07.2020 01:00:00 13,0 12,2 11,7 17,8 6 3 10 5 W 1014,7 18 0 0,0
02.07.2020 00:00:00 12,5 11,6 11,0 17,8 8 4 13 7 W 1014,4 29 0 0,0
01.07.2020 23:00:00 12,9 11,8 11,9 17,8 9 5 22 12 W 1014,1 28 0 0,0
01.07.2020 22:00:00 13,8 12,2 12,9 17,8 16 9 31 17 WNW 1013,2 29 15 0,0
01.07.2020 21:00:00 14,5 13,5 13,9 17,8 16 9 42 23 NW 1012,7 19 21 0,6
01.07.2020 20:00:00 16,5 14,1 16,8 17,7 14 8 31 17 W 1012,0 42 2 0,0
01.07.2020 19:00:00 16,6 14,4 16,6 17,7 19 10 35 19 W 1011,8 35 0 0,0
01.07.2020 18:00:00 16,9 15,4 16,0 17,6 18 10 29 16 W 1011,6 42 0 0,2
01.07.2020 17:00:00 16,7 15,1 16,3 17,5 21 12 35 19 WSW 1011,4 11 0 0,0
01.07.2020 16:00:00 18,3 14,2 19,6 17,5 23 12 38 20 WSW 1011,0 28 1 0,0
01.07.2020 15:00:00 18,2 14,5 16,3 17,4 19 10 37 20 WSW 1010,8 27 9 0,0
01.07.2020 14:00:00 18,1 14,2 19,5 17,5 27 14 37 20 WSW 1010,6 51 19 0,0
01.07.2020 13:00:00 17,3 14,2 18,2 17,5 18 10 37 20 WSW 1010,5 47 3 0,2
01.07.2020 12:00:00 17,1 14,6 16,1 17,4 19 10 39 21 WSW 1010,3 18 8 0,0
01.07.2020 11:00:00 16,7 14,2 15,3 17,5 22 12 35 19 WSW 1010,1 35 3 0,0
01.07.2020 10:00:00 16,4 14,4 15,6 17,5 18 10 29 16 WSW 1009,9 20 0 0,0
01.07.2020 09:00:00 16,0 14,5 15,3 17,5 15 8 23 13 WSW 1009,8 35 0 0,0
01.07.2020 08:00:00 15,1 14,5 14,3 17,5 7 4 12 7 SW 1009,6 19 0 0,0
01.07.2020 07:00:00 14,6 14,1 13,9 17,6 6 4 12 6 SW 1009,3 16 0 0,0
01.07.2020 06:00:00 14,5 14,0 13,8 17,6 10 5 18 10 W 1009,1 31 0 0,0
01.07.2020 05:00:00 14,5 13,9 13,8 17,6 10 6 26 14 W 1009,3 36 0 0,0
01.07.2020 04:00:00 15,5 15,2 15,2 17,6 17 9 39 21 W 1009,2 3,8 0 0,2
01.07.2020 03:00:00 16,6 16,3 16,3 17,6 24 13 40 22 WSW 1009,1 2,2 0 0,8
01.07.2020 02:00:00 16,9 16,6 16,6 17,6 23 13 48 26 WSW 1009,6 2,1 0 0,8
01.07.2020 01:00:00 17,1 16,8 16,9 17,6 21 11 38 21 SW 1009,9 3,3 0 0,4
01.07.2020 00:00:00 17,3 17,0 17,0 17,6 20 11 36 20 SW 1010,3 5 0 0,2
30.06.2020 23:00:00 17,3 16,8 17,0 17,6 20 11 38 21 SW 1010,4 10 0 0,0
30.06.2020 22:00:00 17,3 16,8 16,9 17,5 18 10 30 16 SSW 1010,3 7 0 0,8
30.06.2020 21:00:00 17,4 16,8 17,0 17,5 18 10 32 18 SW 1010,6 2,5 0 0,2
30.06.2020 20:00:00 18,0 16,5 18,0 17,4 22 12 39 21 WSW 1010,7 16 0 0,0
30.06.2020 19:00:00 18,8 16,9 19,2 17,4 18 10 42 23 SW 1010,9 21 0 0,0
30.06.2020 18:00:00 18,9 16,7 19,6 17,3 23 13 39 21 WSW 1011,5 16 0 0,0
30.06.2020 17:00:00 19,0 16,8 20,0 17,3 22 12 36 19 WSW 1011,8 12 0 0,0
30.06.2020 16:00:00 19,3 17,1 20,4 17,3 21 12 39 21 WSW 1012,0 18 1 0,0
30.06.2020 15:00:00 19,0 17,3 18,0 17,3 22 12 38 20 WSW 1012,2 19 0 0,0
30.06.2020 14:00:00 18,1 16,9 18,0 17,3 24 13 38 20 WSW 1012,4 17 0 0,0
30.06.2020 13:00:00 17,5 16,9 16,6 17,3 19 10 34 19 SW 1012,5 9 0 0,0
30.06.2020 12:00:00 16,5 16,2 16,0 17,3 17 9 30 16 WSW 1012,6 7 0 0,0
30.06.2020 11:00:00 16,0 15,7 15,4 17,3 17 9 28 15 SW 1012,7 9 0 0,0
30.06.2020 10:00:00 15,4 15,1 14,8 17,4 14 8 24 13 SW 1013,0 15 0 0,0
30.06.2020 09:00:00 14,8 14,5 14,3 17,4 10 5 24 13 WSW 1012,8 10 0 0,0
30.06.2020 08:00:00 14,4 14,1 14,2 17,4 15 8 29 16 WSW 1012,9 4,2 0 0,0
30.06.2020 07:00:00 14,6 14,3 14,4 17,5 13 7 28 15 W 1012,7 5 0 0,2
30.06.2020 06:00:00 14,9 14,6 14,6 17,5 15 8 29 16 WSW 1012,5 2,5 0 0,2
30.06.2020 05:00:00 15,1 14,8 14,8 17,5 13 7 26 14 WSW 1012,7 2,5 0 0,0
30.06.2020 04:00:00 15,2 14,9 15,0 17,6 15 8 32 17 W 1013,1 10 0 0,0
30.06.2020 03:00:00 15,7 15,5 14,8 17,6 16 9 31 17 SW 1013,4 6 0 0,6

tt = Température de l'air
td = dewpoint
tt 5cm = Température de l'air 5cm
tt -20cm = Température de l'air -20cm
ff = Vitesse du vent
fx = gusts
dd = Direction du vent
ppp = reduced air pressure
vv = visibility
sd = Ensoleillement
rr = Quantités de précipitations

stations d'obs. à proximité